Hourly Data Report for January 12, 2018

All times are specified in Local Standard Time (LST). Add 1 hour to adjust for Daylight Saving Time where and when it is observed.

LONDON CS
ONTARIO

43°02'00.000" N
81°09'00.000" W
278.00 m
6144478
71622
WSN

Download Data

Hourly Data (January 2018)
Hourly Data Report for January 12, 2018
Temp Definition
°C
Dew Point Temp Definition
°C
Rel Hum Definition
%
Wind Dir Definition
10's deg

Wind Spd Definition
km/h
Visibility Definition
km
Stn Press Definition
kPa
Hmdx Definition


Wind Chill Definition


Weather Definition


TIME
00:00 10.6 10.4 99 LegendMM LegendMM   97.41     LegendNANA
01:00 11.2 10.8 98 LegendMM LegendMM   97.33     LegendNANA
02:00 10.8 10.5 98 LegendMM LegendMM   97.27     LegendNANA
03:00 10.4 10.1 98 LegendMM LegendMM   97.24     LegendNANA
04:00 10.3 10.1 99 LegendMM LegendMM   97.18     LegendNANA
05:00 9.7 9.5 99 LegendMM LegendMM   97.12     LegendNANA
06:00 9.2 9.0 99 LegendMM LegendMM   97.11     LegendNANA
07:00 3.8 3.1 95 LegendMM LegendMM   97.14     LegendNANA
08:00 1.5 0.5 93 LegendMM LegendMM   97.24     LegendNANA
09:00 0.4 -0.6 93 LegendMM LegendMM   97.38     LegendNANA
10:00 0.0 -1.3 91 LegendMM LegendMM   97.46     LegendNANA
11:00 -1.1 -2.6 90 LegendMM LegendMM   97.56     LegendNANA
12:00 -2.4 -4.6 85 LegendMM LegendMM   97.54     LegendNANA
13:00 -3.6 -5.1 89 LegendMM LegendMM   97.63     LegendNANA
14:00 -4.9 -6.7 87 LegendMM LegendMM   97.73     LegendNANA
15:00 -6.2 -7.8 88 LegendMM LegendMM   97.80     LegendNANA
16:00 -6.8 -9.9 79 LegendMM LegendMM   98.00     LegendNANA
17:00 -7.8 -11.2 76 LegendMM LegendMM   98.13     LegendNANA
18:00 -8.5 -11.2 81 LegendMM LegendMM   98.33     LegendNANA
19:00 -8.7 -12.3 75 LegendMM LegendMM   98.31     LegendNANA
20:00 -8.9 -12.6 75 LegendMM LegendMM   98.36     LegendNANA
21:00 -9.2 -12.6 76 LegendMM LegendMM   98.30     LegendNANA
22:00 -9.5 -13.2 74 LegendMM LegendMM   98.42     LegendNANA
23:00 -9.9 -13.8 73 LegendMM LegendMM   98.50     LegendNANA

Notes on Data Quality.

Legend

  • E = Estimated
  • M = Missing
  • NA = Not Available
  • ‡ = Partner data that is not subject to review by the National Climate Archives
Date modified: